Regional Weather Roundup
Issued by NWS Mobile, AL

Home | Current Version | Previous Version | Text Only | Print | Product List | Glossary On
Versions: 1 2 3 4 5 6 7 8 9 10 11 12 13 14 15 16 17 18 19 20 21 22 23 24 25 26 27
000
ASUS44 KMOB 251112
RWRMOB
REGIONAL WEATHER ROUNDUP
NATIONAL WEATHER SERVICE MOBILE AL
600 AM CDT THU AUG 25 2016

NOTE: "FAIR" INDICATES FEW OR NO CLOUDS BELOW 12,000 FEET WITH NO
      SIGNIFICANT WEATHER AND/OR OBSTRUCTIONS TO VISIBILITY.

  * THESE STATIONS ARE PART OF THE UNIVERSITY OF SOUTH ALABAMA
    MESONET AND ARE NOT UNDER NWS OR FAA QUALITY CONTROL.

ALZ061>064-251200-
COASTAL ALABAMA

CITY           SKY/WX    TMP DP  RH WIND       PRES   REMARKS
MOBILE REG APT MOCLDY    76  75  97 NE3       30.11R FOG
BROOKLEY FIELD PTCLDY    79  78  97 N5        30.11R
USA CAMPUS*    NOT AVBL
DOG RIVER*     NOT AVBL


CITY           SKY/WX    TMP DP  RH WIND       PRES   REMARKS
MOUNT VERNON*  NOT AVBL
SARALAND*      NOT AVBL
BAY MINETTE*   NOT AVBL
LOXLEY*        NOT AVBL
ROBERTSDALE*   NOT AVBL
FAIRHOPE*      NOT AVBL
ELBERTA*       NOT AVBL
FOLEY*         NOT AVBL
GRAND BAY*     NOT AVBL
DAUPHIN ISLND* NOT AVBL
BON SCOUR NWR* NOT AVBL
GULF SHORES    CLEAR     75  75 100 N5        30.09R

$$

ALZ051>060-251200-
INTERIOR SOUTHWEST AND SOUTH CENTRAL ALABAMA

CITY           SKY/WX    TMP DP  RH WIND       PRES   REMARKS
GREENVILLE     CLOUDY    76  72  87 CALM      30.15R
EVERGREEN      MOCLDY    73  71  93 CALM      30.14R
CASTLEBERRY*   NOT AVBL
ATMORE*        NOT AVBL
DIXIE*         NOT AVBL
ANDALUSIA/OPP  CLOUDY    78  73  84 CALM      30.14R
ANDALUSIA*     NOT AVBL
FLORALA APT    CLEAR     74  71  91 CALM      30.16R
FLORALA*       NOT AVBL

$$

FLZ001>006-251200-
WESTERN FLORIDA PANHANDLE

CITY           SKY/WX    TMP DP  RH WIND       PRES   REMARKS
PENSACOLA      CLEAR     78  74  87 NE6       30.10R
NAS PENSACOLA  PTCLDY    78  75  90 NE6       30.09R
MILTON         PTCLDY    74  73  97 N3        30.11R
WHTNG S FIELD  CLEAR     78  75  90 NE6       30.11R


CITY           SKY/WX    TMP DP  RH WIND       PRES   REMARKS
WALNUT HILL*   NOT AVBL
JAY*           NOT AVBL
DUKE FIELD     CLEAR     73  71  94 CALM      30.11R
CRESTVIEW      CLEAR     74  72  93 NE3       30.13R
VALPARAISO     PTCLDY    76  72  87 E5        30.10R
DESTIN         CLEAR     80  75  84 E6        30.10R

$$

MSZ076-079-251200-
INTERIOR SOUTHEAST MISSISSIPPI

CITY           SKY/WX    TMP DP  RH WIND       PRES   REMARKS
LEAKESVILLE*   NOT AVBL
AGRICOLA*      NOT AVBL

$$

MARINE OBSERVATIONS

STATION/POSITION TIME  TEMP    WIND        PRES    WAVE
                       AIR SEA DIR/SP/G            HT/PER
                 (UTC) (F)     (DEG/KT/KT) (MB)    (FT/S)
PASCAGOULA       1000   79      20/  5/  7 1018.1R
PETIT BOIS ISLND 1000   84     100/  6/  8 1018.8R
GRAND BAY        0900   86     140/  6     1019.0
KATRINA CUT      1000   85      90/  8     1019.3R
CEDAR POINT      1000   83      70/  7     1018.3R
E DAUPHIN ISLAND 1000   83      70/  8/  9 1018.1R
MIDDLE BAY LIGHT 1000   82      80/  6     1018.6R
USCG MOBILE BAY  1000   79 89   10/  3/  3 1019.2R
STATE DOCKS      1000   78 88              1018.7R
MEAHER PARK      1000   78      60/  4     1019.0R
WEEKS BAY        0900   77                   N/A
FORT MORGAN      1000   82      80/  7/  9 1017.8R
12 S ORANGE BCH  1050   84 87   70/ 12/ 14 1018.5R   1/ 5
PENSACOLA BAY    1000   79 87   20/  4/  6 1019.0R
64 S DAUPHIN ISL 1000   86 87  100/  8/ 10 1017.4R
67 S FORT MORGAN 1030   84      80/ 10     1017.6R

$$

SELECTED LOCATIONS ACROSS THE REGION

CITY           SKY/WX    TMP DP  RH WIND       PRES   REMARKS
NEW ORLEANS    MOCLDY    83  78  85 CALM      30.07R
GULFPORT       CLEAR     77  76  96 N3        30.08R
PASCAGOULA AP  PTCLDY    77  77 100 CALM      30.09R FOG
PASCAGOULA*    NOT AVBL
HATTIESBURG    CLEAR     75  73  93 CALM      30.13R
LAUREL         CLEAR     73  72  94 N5        30.14R
MERIDIAN       MOCLDY    77  73  87 CALM      30.13R
JACKSON        CLEAR     75  73  93 SE3       30.11S
MONTGOMERY     CLOUDY    78  72  81 E6        30.15R
TROY           CLEAR     73  72  96 NE3       30.16R
KINSTON*       NOT AVBL
GENEVA*        NOT AVBL
ASHFORD*       NOT AVBL
DOTHAN         CLOUDY    74  73  97 E6        30.17R
PANAMA CITY    CLEAR     73  71  93 NE5       30.10R

$$





USA.gov is the U.S. government's official web portal to all federal, state and local government web resources and services.